2021/08/08 23:40:07+0000,-40.52,-50.22,-26.63,-51.53,-53.64,-54.96
2021/08/08 23:41:08+0000,-42.29,-50.95,-26.47,-50.56,-54.53,-54.90
2021/08/08 23:42:00+0000,-42.35,-50.80,-29.91,-51.30,-54.53,-54.70
2021/08/08 23:42:52+0000,-41.62,-51.10,-29.96,-50.58,-54.63,-55.42
2021/08/08 23:43:44+0000,-41.63,-50.53,-29.54,-50.66,-54.19,-55.35
2021/08/08 23:44:36+0000,-41.83,-50.88,-29.71,-50.95,-53.90,-55.03
2021/08/08 23:45:28+0000,-40.54,-50.72,-29.67,-51.11,-54.53,-54.67
2021/08/08 23:46:20+0000,-42.15,-50.74,-30.15,-50.96,-54.20,-55.30
2021/08/08 23:47:12+0000,-40.23,-49.77,-30.20,-50.61,-53.64,-54.92
2021/08/08 23:48:04+0000,-40.80,-50.80,-29.91,-51.34,-54.92,-55.03
2021/08/08 23:48:56+0000,-41.33,-50.86,-29.91,-50.92,-54.05,-54.35
2021/08/08 23:49:48+0000,-41.28,-50.88,-29.90,-49.92,-53.89,-55.70
2021/08/08 23:50:40+0000,-41.33,-50.20,-29.45,-50.03,-54.38,-54.90
2021/08/08 23:51:40+0000,-40.96,-50.38,-29.78,-50.81,-26.65,-55.18
2021/08/08 23:52:32+0000,-41.53,-50.64,-30.30,-50.25,-54.17,-54.38
2021/08/08 23:53:24+0000,-41.51,-50.72,-29.42,-49.54,-53.55,-54.97
2021/08/08 23:54:16+0000,-42.30,-50.81,-29.62,-50.63,-54.36,-55.55
2021/08/08 23:55:08+0000,-42.28,-51.28,-29.97,-50.34,-54.48,-55.02
2021/08/08 23:56:00+0000,-41.33,-49.88,-30.30,-26.37,-54.24,-55.14
2021/08/08 23:56:52+0000,-42.05,-48.73,-30.59,-50.57,-54.03,-55.57
2021/08/08 23:57:44+0000,-41.76,-49.84,-29.97,-26.41,-54.51,-55.37
2021/08/08 23:58:36+0000,-42.42,-48.86,-30.05,-51.17,-54.32,-55.42
2021/08/08 23:59:28+0000,-42.28,-48.53,-29.59,-49.18,-54.35,-54.74
2021/08/09 00:00:21+0000,-39.32,-49.19,-29.86,-50.30,-54.04,-54.73
2021/08/09 00:01:25+0000,-39.27,-49.55,-29.44,-50.24,-54.27,-54.40
2021/08/09 00:02:17+0000,-40.27,-48.40,-29.92,-26.82,-54.77,-54.89
2021/08/09 00:03:09+0000,-40.08,-48.81,-29.77,-26.63,-54.60,-55.20
2021/08/09 00:04:01+0000,-40.37,-49.20,-29.91,-50.69,-54.27,-55.63
2021/08/09 00:04:53+0000,-39.08,-48.94,-29.34,-50.48,-55.09,-54.73
2021/08/09 00:05:45+0000,-39.65,-49.01,-29.92,-26.98,-55.39,-55.26
2021/08/09 00:06:37+0000,-40.29,-48.56,-29.90,-26.25,-55.00,-55.61
2021/08/09 00:07:29+0000,-39.04,-50.30,-30.05,-51.27,-54.82,-54.97
2021/08/09 00:08:21+0000,-39.31,-49.32,-29.83,-49.97,-54.96,-54.83
2021/08/09 00:09:13+0000,-40.50,-48.33,-29.29,-26.59,-55.04,-55.21
2021/08/09 00:10:06+0000,-39.62,-48.95,-29.71,-26.94,-55.26,-55.15
2021/08/09 00:11:06+0000,-39.26,-49.13,-29.85,-26.65,-55.02,-55.17
2021/08/09 00:11:58+0000,-40.90,-49.33,-30.10,-50.48,-55.31,-54.60
2021/08/09 00:12:50+0000,-39.94,-49.82,-29.72,-51.18,-54.71,-55.47
2021/08/09 00:13:42+0000,-40.48,-48.73,-30.09,-26.91,-55.47,-54.96
2021/08/09 00:14:34+0000,-40.40,-48.85,-30.15,-51.41,-54.87,-55.04
2021/08/09 00:15:26+0000,-40.18,-51.26,-29.69,-50.16,-55.41,-55.12
2021/08/09 00:16:18+0000,-40.56,-50.91,-29.66,-28.33,-54.68,-55.30
2021/08/09 00:17:10+0000,-40.38,-49.97,-30.07,-50.45,-55.38,-55.13
2021/08/09 00:18:02+0000,-40.44,-50.92,-28.80,-49.66,-55.50,-56.17
2021/08/09 00:18:54+0000,-40.24,-51.31,-29.89,-50.26,-54.21,-55.00
2021/08/09 00:19:46+0000,-39.74,-50.62,-29.95,-47.51,-55.33,-55.50
2021/08/09 00:20:38+0000,-40.99,-49.92,-29.65,-26.35,-55.57,-55.40
2021/08/09 00:21:38+0000,-40.52,-49.15,-30.19,-26.59,-55.35,-55.05
2021/08/09 00:22:30+0000,-40.10,-50.88,-29.49,-50.30,-55.45,-55.52
2021/08/09 00:23:22+0000,-40.65,-51.12,-29.85,-50.27,-55.25,-55.66
2021/08/09 00:24:14+0000,-40.63,-48.93,-29.67,-47.32,-55.19,-55.82
2021/08/09 00:25:06+0000,-40.58,-50.96,-29.99,-26.85,-55.08,-54.86
2021/08/09 00:25:58+0000,-40.38,-51.05,-29.75,-50.48,-55.60,-55.16
2021/08/09 00:26:50+0000,-40.71,-50.25,-29.63,-50.81,-55.04,-55.02
2021/08/09 00:27:42+0000,-40.65,-50.43,-30.12,-46.91,-54.97,-55.06
2021/08/09 00:28:34+0000,-41.73,-50.04,-30.03,-52.24,-55.12,-54.94
2021/08/09 00:29:26+0000,-40.28,-51.21,-29.66,-50.19,-55.00,-55.74
2021/08/09 00:30:18+0000,-40.15,-50.32,-30.22,-51.35,-55.11,-55.17
2021/08/09 00:31:19+0000,-39.73,-50.78,-29.79,-51.82,-55.88,-54.87
2021/08/09 00:32:11+0000,-40.22,-50.56,-30.48,-46.74,-55.42,-55.39
2021/08/09 00:33:03+0000,-40.12,-51.01,-29.68,-50.61,-55.34,-55.16
2021/08/09 00:33:55+0000,-40.90,-50.60,-30.17,-49.82,-54.88,-54.82
2021/08/09 00:34:47+0000,-40.82,-50.23,-29.67,-47.06,-55.18,-55.20
2021/08/09 00:35:39+0000,-40.48,-50.44,-29.65,-47.67,-55.32,-55.01
2021/08/09 00:36:31+0000,-39.56,-50.56,-30.08,-51.02,-55.75,-54.82
2021/08/09 00:37:23+0000,-39.87,-51.49,-30.05,-50.38,-55.96,-55.42
2021/08/09 00:38:15+0000,-39.37,-50.24,-29.21,-46.95,-54.77,-54.86
2021/08/09 00:39:07+0000,-39.30,-50.80,-29.32,-46.68,-55.22,-54.82
2021/08/09 00:39:59+0000,-39.35,-51.25,-29.77,-50.64,-54.99,-54.72
2021/08/09 00:40:51+0000,-39.81,-51.00,-30.33,-51.04,-55.79,-54.91
2021/08/09 00:41:52+0000,-39.66,-51.14,-29.29,-50.91,-55.12,-54.61
2021/08/09 00:42:44+0000,-40.23,-50.65,-29.74,-47.50,-55.30,-54.68
2021/08/09 00:43:36+0000,-39.90,-50.94,-29.52,-47.03,-55.50,-54.68
2021/08/09 00:44:28+0000,-40.71,-50.42,-30.38,-50.58,-55.22,-55.30
2021/08/09 00:45:20+0000,-39.81,-51.02,-29.47,-51.70,-55.82,-54.76
2021/08/09 00:46:12+0000,-40.47,-48.57,-29.43,-50.40,-55.87,-55.23
2021/08/09 00:47:04+0000,-40.27,-50.74,-29.76,-50.76,-55.65,-54.80
2021/08/09 00:47:56+0000,-40.29,-51.32,-29.82,-49.88,-55.99,-54.66
2021/08/09 00:48:48+0000,-40.37,-50.41,-29.84,-46.62,-55.42,-54.46
2021/08/09 00:49:41+0000,-39.75,-50.61,-29.84,-46.84,-55.28,-54.88
2021/08/09 00:50:33+0000,-40.42,-49.33,-29.63,-50.16,-55.59,-55.37
2021/08/09 00:51:32+0000,-40.04,-50.96,-29.80,-49.98,-54.78,-54.63
2021/08/09 00:52:24+0000,-40.09,-51.28,-29.92,-50.49,-55.44,-55.31
2021/08/09 00:53:16+0000,-40.20,-50.55,-30.11,-47.31,-55.22,-54.69
2021/08/09 00:54:08+0000,-39.99,-50.75,-30.28,-50.75,-55.18,-55.04
2021/08/09 00:55:00+0000,-39.72,-50.14,-29.77,-50.14,-55.19,-55.73
2021/08/09 00:55:52+0000,-40.23,-51.58,-29.97,-50.00,-55.71,-55.34
2021/08/09 00:56:45+0000,-39.46,-50.80,-29.90,-46.68,-55.19,-55.49
2021/08/09 00:57:37+0000,-39.74,-51.10,-29.58,-46.41,-55.74,-54.99
2021/08/09 00:58:29+0000,-40.19,-50.66,-29.66,-49.18,-56.05,-55.19
2021/08/09 00:59:21+0000,-39.55,-50.45,-30.08,-51.36,-56.22,-55.84
2021/08/09 01:00:13+0000,-40.21,-50.86,-29.73,-47.14,-55.72,-55.41
2021/08/09 01:01:14+0000,-40.02,-50.33,-29.66,-46.47,-55.55,-55.93
2021/08/09 01:02:06+0000,-39.38,-51.19,-29.57,-46.61,-55.27,-55.13
2021/08/09 01:02:58+0000,-40.22,-50.40,-29.77,-50.14,-55.96,-55.10
2021/08/09 01:03:50+0000,-40.36,-50.70,-29.80,-50.44,-55.87,-55.33
2021/08/09 01:04:42+0000,-39.45,-49.85,-30.39,-46.74,-55.41,-55.13
2021/08/09 01:05:34+0000,-39.83,-50.67,-30.01,-50.34,-55.70,-54.43
2021/08/09 01:06:26+0000,-40.32,-50.98,-30.06,-49.27,-55.43,-55.15
2021/08/09 01:07:18+0000,-39.56,-49.70,-30.52,-51.40,-55.52,-54.77
2021/08/09 01:08:10+0000,-40.41,-50.83,-30.30,-46.60,-55.06,-55.86
2021/08/09 01:09:02+0000,-39.07,-50.32,-30.19,-50.22,-55.08,-56.31
2021/08/09 01:09:54+0000,-40.65,-50.26,-29.41,-49.81,-55.65,-56.12
2021/08/09 01:10:47+0000,-40.25,-50.99,-29.65,-46.91,-55.56,-56.28
2021/08/09 01:11:47+0000,-40.52,-50.87,-29.60,-48.64,-55.42,-56.77
2021/08/09 01:12:39+0000,-39.98,-50.40,-29.75,-48.61,-55.49,-55.67
2021/08/09 01:13:31+0000,-39.87,-50.34,-29.94,-50.37,-55.50,-56.43
2021/08/09 01:14:23+0000,-39.84,-50.20,-29.56,-50.63,-56.12,-55.72
2021/08/09 01:15:15+0000,-40.29,-50.46,-30.14,-50.37,-55.86,-56.55
2021/08/09 01:16:07+0000,-39.70,-50.90,-29.57,-49.87,-55.58,-55.86
2021/08/09 01:16:59+0000,-38.87,-49.98,-29.42,-49.19,-55.83,-56.37
2021/08/09 01:17:51+0000,-39.19,-50.30,-29.76,-48.88,-55.76,-56.35
2021/08/09 01:18:43+0000,-38.53,-50.12,-29.87,-50.72,-56.02,-56.28
2021/08/09 01:19:35+0000,-39.51,-49.90,-29.69,-50.93,-55.33,-56.45
2021/08/09 01:20:27+0000,-39.74,-50.15,-29.16,-48.90,-55.37,-56.65
2021/08/09 01:21:27+0000,-39.11,-49.43,-29.22,-48.84,-55.12,-56.52
2021/08/09 01:22:19+0000,-40.23,-50.14,-29.98,-51.04,-55.59,-56.39
2021/08/09 01:23:11+0000,-39.97,-49.70,-30.03,-50.46,-55.62,-56.03
2021/08/09 01:24:03+0000,-40.37,-50.02,-29.63,-50.73,-54.92,-56.39
2021/08/09 01:24:55+0000,-41.45,-50.57,-29.32,-49.62,-55.17,-56.01
2021/08/09 01:25:47+0000,-41.19,-49.75,-29.75,-50.44,-55.06,-56.83
2021/08/09 01:26:39+0000,-41.57,-49.61,-29.02,-50.43,-55.51,-56.15
2021/08/09 01:27:31+0000,-39.64,-49.96,-30.01,-49.57,-55.27,-57.05
2021/08/09 01:28:23+0000,-41.55,-49.71,-30.16,-49.31,-55.41,-55.86
2021/08/09 01:29:15+0000,-41.06,-49.36,-29.97,-50.69,-55.46,-55.75
2021/08/09 01:30:07+0000,-40.48,-50.63,-29.50,-43.87,-55.68,-56.34
2021/08/09 01:31:07+0000,-40.70,-50.60,-29.59,-46.88,-55.66,-56.00
2021/08/09 01:31:59+0000,-40.07,-48.80,-29.39,-48.72,-55.26,-56.09
2021/08/09 01:32:51+0000,-40.93,-50.77,-29.43,-48.82,-55.57,-56.36
2021/08/09 01:33:43+0000,-40.86,-48.62,-29.84,-49.47,-55.34,-55.88
2021/08/09 01:34:35+0000,-41.36,-49.09,-30.07,-50.49,-55.74,-56.26
2021/08/09 01:35:27+0000,-40.98,-50.14,-29.71,-48.93,-55.30,-56.22
2021/08/09 01:36:19+0000,-41.25,-49.18,-30.01,-50.50,-55.91,-56.27
2021/08/09 01:37:11+0000,-40.68,-49.24,-30.16,-50.25,-55.18,-56.46
2021/08/09 01:38:03+0000,-41.95,-50.00,-30.09,-49.95,-55.38,-56.44
2021/08/09 01:38:55+0000,-40.94,-50.56,-29.55,-50.81,-54.94,-56.64
2021/08/09 01:39:48+0000,-40.82,-49.67,-29.60,-49.48,-55.48,-56.44
2021/08/09 01:40:40+0000,-41.10,-47.03,-29.84,-48.53,-55.78,-56.58
2021/08/09 01:41:39+0000,-40.43,-49.21,-29.63,-48.43,-56.23,-55.50
2021/08/09 01:42:31+0000,-40.63,-49.44,-29.75,-48.64,-55.43,-56.49
2021/08/09 01:43:23+0000,-40.48,-50.72,-29.60,-49.16,-55.72,-56.20
2021/08/09 01:44:15+0000,-41.37,-48.90,-29.75,-50.57,-55.99,-56.58
2021/08/09 01:45:08+0000,-40.57,-50.76,-29.63,-50.82,-55.06,-56.11
2021/08/09 01:46:00+0000,-41.14,-49.74,-30.09,-48.52,-56.16,-56.24
2021/08/09 01:46:52+0000,-40.55,-50.88,-29.86,-48.83,-55.83,-56.07
2021/08/09 01:47:44+0000,-40.79,-49.67,-30.05,-50.09,-55.81,-55.75
2021/08/09 01:48:36+0000,-41.30,-50.05,-29.87,-50.52,-55.71,-56.03
2021/08/09 01:49:28+0000,-40.42,-50.38,-29.76,-48.08,-55.63,-56.64
2021/08/09 01:50:20+0000,-40.13,-49.20,-29.25,-51.25,-55.86,-55.87
2021/08/09 01:51:20+0000,-40.73,-49.67,-29.45,-50.74,-55.72,-56.33
2021/08/09 01:52:12+0000,-41.02,-49.49,-29.71,-50.19,-56.06,-56.04
2021/08/09 01:53:04+0000,-41.48,-50.52,-29.63,-51.03,-56.25,-56.28
2021/08/09 01:53:56+0000,-40.72,-50.23,-29.83,-50.20,-56.11,-55.98
2021/08/09 01:54:48+0000,-40.45,-48.36,-30.19,-49.09,-56.01,-56.48
2021/08/09 01:55:40+0000,-41.16,-49.39,-30.07,-49.24,-55.34,-56.21
2021/08/09 01:56:32+0000,-40.97,-49.87,-29.99,-50.97,-55.68,-56.64
2021/08/09 01:57:24+0000,-40.85,-49.86,-29.95,-51.04,-55.74,-57.25
2021/08/09 01:58:16+0000,-41.32,-48.38,-30.33,-52.22,-55.97,-56.25
2021/08/09 01:59:08+0000,-40.60,-47.95,-29.83,-51.45,-55.53,-56.38
2021/08/09 02:00:00+0000,-39.88,-47.24,-29.78,-51.47,-56.12,-56.89
2021/08/09 02:01:01+0000,-41.37,-47.22,-30.27,-51.42,-56.15,-56.99
2021/08/09 02:01:53+0000,-41.22,-48.51,-29.40,-51.42,-55.97,-57.67
2021/08/09 02:02:45+0000,-41.77,-46.85,-30.51,-49.62,-55.82,-56.43
2021/08/09 02:03:37+0000,-41.20,-48.55,-29.37,-49.74,-56.11,-57.61
2021/08/09 02:04:29+0000,-41.40,-48.19,-29.75,-51.51,-55.56,-57.06
2021/08/09 02:05:21+0000,-41.66,-48.79,-29.57,-51.64,-56.72,-57.25
2021/08/09 02:06:13+0000,-41.92,-46.26,-30.31,-50.32,-56.20,-56.42
2021/08/09 02:07:05+0000,-41.54,-48.90,-30.20,-49.77,-56.07,-57.01
2021/08/09 02:07:57+0000,-40.27,-47.33,-29.86,-51.28,-56.43,-56.83
2021/08/09 02:08:49+0000,-40.87,-47.32,-29.51,-51.80,-56.28,-56.82
2021/08/09 02:09:41+0000,-40.98,-47.50,-29.46,-50.39,-56.33,-57.25
2021/08/09 02:10:33+0000,-41.54,-47.04,-29.96,-52.28,-56.31,-56.38
2021/08/09 02:11:34+0000,-41.22,-45.98,-29.96,-52.25,-55.93,-56.77
2021/08/09 02:12:26+0000,-41.36,-46.95,-30.12,-51.83,-55.47,-57.32
2021/08/09 02:13:18+0000,-41.07,-48.52,-29.48,-51.32,-55.89,-56.61
2021/08/09 02:14:10+0000,-41.22,-46.48,-29.44,-51.71,-56.20,-57.09
2021/08/09 02:15:02+0000,-41.91,-47.71,-29.66,-52.26,-56.31,-56.53
2021/08/09 02:15:54+0000,-41.35,-47.33,-30.00,-51.43,-55.91,-56.68
2021/08/09 02:16:46+0000,-41.28,-47.01,-29.85,-50.87,-56.13,-56.74
2021/08/09 02:17:38+0000,-41.65,-47.18,-30.04,-52.24,-56.10,-57.03
2021/08/09 02:18:30+0000,-41.73,-46.91,-29.38,-51.60,-56.21,-56.93
2021/08/09 02:19:22+0000,-41.74,-48.05,-29.80,-51.47,-56.14,-57.27
2021/08/09 02:20:14+0000,-42.10,-46.51,-30.25,-52.20,-56.40,-57.12
2021/08/09 02:21:15+0000,-41.74,-46.95,-29.41,-52.11,-56.08,-57.08
2021/08/09 02:22:07+0000,-41.56,-47.62,-29.86,-51.90,-55.84,-56.68
2021/08/09 02:22:59+0000,-41.44,-47.41,-30.06,-51.84,-55.99,-56.93
2021/08/09 02:23:51+0000,-41.15,-48.29,-29.61,-51.86,-55.89,-57.38
2021/08/09 02:24:43+0000,-41.38,-45.84,-29.79,-52.08,-56.45,-56.74
2021/08/09 02:25:35+0000,-40.41,-47.53,-30.03,-52.42,-56.15,-56.75
2021/08/09 02:26:27+0000,-40.89,-46.14,-29.11,-52.24,-55.96,-56.61
2021/08/09 02:27:19+0000,-40.75,-45.77,-30.40,-52.02,-56.22,-56.70
2021/08/09 02:28:11+0000,-40.79,-46.54,-30.27,-51.66,-56.35,-57.59
2021/08/09 02:29:03+0000,-40.83,-46.59,-30.19,-51.29,-56.46,-56.98
2021/08/09 02:29:55+0000,-39.57,-47.11,-29.48,-49.20,-55.59,-56.47
2021/08/09 02:30:47+0000,-40.99,-46.24,-30.13,-51.64,-56.34,-57.02
2021/08/09 02:31:48+0000,-40.29,-46.92,-30.00,-51.12,-56.57,-56.38
2021/08/09 02:32:40+0000,-40.22,-46.40,-29.47,-51.25,-56.17,-56.76
2021/08/09 02:33:32+0000,-41.04,-47.20,-29.81,-50.25,-55.75,-57.11
2021/08/09 02:34:24+0000,-40.94,-47.68,-29.48,-51.75,-55.70,-56.95
2021/08/09 02:35:16+0000,-40.08,-46.65,-29.80,-51.04,-56.82,-56.82
2021/08/09 02:36:08+0000,-40.46,-48.26,-29.77,-51.09,-56.08,-56.60
2021/08/09 02:37:00+0000,-41.34,-47.18,-29.88,-52.11,-55.89,-56.62
2021/08/09 02:37:52+0000,-41.10,-48.79,-29.82,-51.41,-56.31,-56.62
2021/08/09 02:38:44+0000,-40.59,-44.44,-29.90,-51.51,-56.14,-56.15
2021/08/09 02:39:36+0000,-40.15,-46.57,-29.45,-50.72,-56.02,-55.46
2021/08/09 02:40:28+0000,-36.75,-47.31,-29.64,-48.80,-55.29,-55.67
2021/08/09 02:41:29+0000,-38.31,-48.38,-29.76,-48.81,-55.73,-55.86
2021/08/09 02:42:21+0000,-38.24,-45.21,-30.24,-50.63,-55.06,-55.86
2021/08/09 02:43:13+0000,-41.03,-46.83,-29.87,-50.70,-55.43,-55.72
2021/08/09 02:44:05+0000,-40.51,-47.47,-30.39,-50.85,-55.28,-55.67
2021/08/09 02:44:57+0000,-39.09,-47.56,-29.97,-49.90,-55.26,-55.49
2021/08/09 02:45:49+0000,-37.04,-42.93,-29.72,-50.55,-54.76,-55.32
2021/08/09 02:46:41+0000,-40.46,-45.76,-29.55,-49.92,-55.18,-55.18
2021/08/09 02:47:33+0000,-40.85,-45.51,-30.00,-50.13,-55.38,-55.52
2021/08/09 02:48:25+0000,-40.64,-45.33,-29.73,-50.24,-55.52,-55.00
2021/08/09 02:49:17+0000,-40.61,-45.34,-30.41,-49.69,-54.51,-55.15
2021/08/09 02:50:09+0000,-40.72,-47.17,-29.77,-50.02,-55.32,-55.03
2021/08/09 02:51:10+0000,-40.85,-48.09,-29.82,-49.95,-54.94,-54.90
2021/08/09 02:52:02+0000,-40.20,-45.01,-30.26,-50.21,-55.07,-55.77
2021/08/09 02:52:54+0000,-34.90,-46.06,-29.08,-50.33,-55.31,-56.24
2021/08/09 02:53:46+0000,-41.17,-48.12,-29.34,-50.58,-55.03,-55.62
2021/08/09 02:54:38+0000,-39.76,-48.44,-29.97,-50.49,-55.01,-55.76
2021/08/09 02:55:30+0000,-39.77,-44.91,-29.96,-49.80,-54.67,-56.32
2021/08/09 02:56:22+0000,-39.53,-50.34,-28.88,-49.96,-55.42,-55.94
2021/08/09 02:57:14+0000,-39.71,-47.70,-29.87,-50.46,-55.30,-56.24
2021/08/09 02:58:06+0000,-39.48,-46.20,-30.00,-51.09,-55.01,-56.22
2021/08/09 02:58:58+0000,-40.53,-43.13,-30.05,-49.27,-55.32,-55.76
2021/08/09 02:59:51+0000,-40.00,-46.06,-29.67,-50.74,-55.25,-56.71
2021/08/09 03:00:43+0000,-39.31,-47.63,-29.62,-50.83,-55.78,-55.81
2021/08/09 03:01:45+0000,-40.74,-46.84,-29.20,-50.59,-54.90,-56.22
2021/08/09 03:02:37+0000,-40.37,-46.17,-29.14,-50.87,-55.43,-55.91
2021/08/09 03:03:29+0000,-41.05,-45.22,-29.31,-50.13,-55.32,-56.35
2021/08/09 03:04:21+0000,-40.41,-50.59,-29.42,-49.84,-55.24,-55.81
2021/08/09 03:05:13+0000,-40.69,-47.92,-29.77,-49.65,-55.15,-56.20
2021/08/09 03:06:06+0000,-41.00,-51.46,-29.77,-49.79,-55.41,-56.41
2021/08/09 03:06:58+0000,-41.65,-49.70,-30.28,-49.43,-55.03,-55.87
2021/08/09 03:07:50+0000,-40.45,-49.60,-29.92,-51.19,-55.31,-56.33
2021/08/09 03:08:42+0000,-41.46,-47.39,-29.46,-50.52,-54.07,-56.06
2021/08/09 03:09:34+0000,-40.85,-49.19,-29.80,-49.96,-55.17,-56.18
2021/08/09 03:10:26+0000,-41.54,-48.76,-29.60,-50.40,-55.31,-56.01
2021/08/09 03:11:30+0000,-39.94,-49.33,-30.18,-50.26,-54.74,-55.98
2021/08/09 03:12:22+0000,-39.73,-49.57,-28.82,-49.69,-55.49,-55.85
2021/08/09 03:13:14+0000,-40.26,-46.60,-29.67,-49.84,-55.42,-55.80
2021/08/09 03:14:06+0000,-40.86,-47.51,-29.63,-50.39,-55.97,-55.80
2021/08/09 03:14:58+0000,-40.68,-44.75,-29.89,-50.44,-55.60,-55.72
2021/08/09 03:15:50+0000,-39.40,-50.29,-29.76,-51.01,-55.60,-55.75
2021/08/09 03:16:42+0000,-40.40,-46.70,-29.94,-50.74,-55.62,-55.67
2021/08/09 03:17:34+0000,-40.28,-40.45,-29.26,-51.14,-55.49,-55.33
2021/08/09 03:18:26+0000,-39.72,-48.21,-29.73,-50.61,-55.35,-55.70
2021/08/09 03:19:18+0000,-36.46,-46.21,-29.28,-51.17,-55.21,-55.49
2021/08/09 03:20:10+0000,-40.22,-48.16,-29.47,-50.50,-55.65,-55.39
2021/08/09 03:21:15+0000,-39.85,-46.98,-29.64,-50.37,-55.16,-55.49
2021/08/09 03:22:07+0000,-39.73,-51.01,-30.10,-51.30,-55.93,-55.89
2021/08/09 03:22:59+0000,-37.84,-48.61,-29.43,-48.83,-55.38,-55.31
2021/08/09 03:23:51+0000,-38.39,-50.56,-29.79,-50.86,-55.27,-55.88
2021/08/09 03:24:43+0000,-40.18,-48.29,-29.59,-51.09,-55.68,-55.48
2021/08/09 03:25:35+0000,-39.43,-47.26,-29.44,-51.57,-55.67,-55.13
2021/08/09 03:26:27+0000,-38.67,-47.21,-29.99,-51.10,-55.96,-55.75
2021/08/09 03:27:19+0000,-40.62,-45.79,-29.41,-51.17,-55.18,-55.47
2021/08/09 03:28:11+0000,-40.67,-46.77,-29.68,-51.27,-55.31,-55.48
2021/08/09 03:29:03+0000,-41.32,-48.31,-29.88,-51.40,-56.12,-56.04
2021/08/09 03:29:55+0000,-39.95,-48.35,-29.65,-51.04,-55.84,-54.99
2021/08/09 03:30:47+0000,-40.48,-46.36,-29.21,-50.14,-55.58,-55.55
2021/08/09 03:31:48+0000,-38.24,-46.99,-30.07,-51.27,-55.43,-56.42
2021/08/09 03:32:40+0000,-39.10,-47.32,-30.19,-51.15,-55.30,-55.92
2021/08/09 03:33:32+0000,-39.49,-45.21,-30.12,-49.96,-56.01,-55.41
2021/08/09 03:34:25+0000,-36.07,-47.53,-29.66,-50.46,-55.66,-55.24
2021/08/09 03:35:17+0000,-36.87,-46.27,-29.66,-50.68,-55.63,-55.42
2021/08/09 03:36:09+0000,-37.47,-46.54,-29.78,-50.34,-55.84,-56.16
2021/08/09 03:37:01+0000,-36.64,-46.86,-29.85,-50.76,-55.27,-55.34
2021/08/09 03:37:53+0000,-33.12,-49.18,-29.99,-50.44,-55.38,-55.82
2021/08/09 03:38:45+0000,-37.84,-46.00,-30.44,-51.13,-55.40,-56.17
2021/08/09 03:39:37+0000,-38.49,-49.54,-30.39,-50.94,-56.00,-55.76
2021/08/09 03:40:29+0000,-37.41,-47.44,-29.72,-50.70,-55.75,-54.79
2021/08/09 03:41:31+0000,-38.16,-47.92,-29.63,-50.89,-56.10,-55.36
2021/08/09 03:42:23+0000,-38.88,-49.06,-29.74,-51.43,-54.91,-55.44
2021/08/09 03:43:15+0000,-38.45,-45.44,-30.11,-50.50,-55.95,-54.91
2021/08/09 03:44:07+0000,-37.10,-47.59,-29.80,-50.53,-55.82,-55.10
2021/08/09 03:44:59+0000,-36.94,-45.68,-29.92,-50.52,-55.29,-55.70
2021/08/09 03:45:51+0000,-35.91,-48.37,-29.34,-50.45,-56.09,-55.65
2021/08/09 03:46:44+0000,-38.36,-44.98,-30.17,-50.17,-55.70,-55.66
2021/08/09 03:47:36+0000,-37.39,-46.39,-29.43,-51.17,-55.31,-55.33
2021/08/09 03:48:28+0000,-38.72,-46.39,-30.13,-49.68,-55.43,-55.10
2021/08/09 03:49:20+0000,-38.13,-44.34,-29.38,-51.01,-56.30,-55.50
2021/08/09 03:50:12+0000,-36.57,-45.79,-29.87,-49.50,-55.57,-55.59
2021/08/09 03:51:15+0000,-38.95,-47.34,-29.82,-51.04,-55.08,-55.22
2021/08/09 03:52:07+0000,-38.73,-48.40,-29.80,-50.33,-55.75,-54.91
2021/08/09 03:53:00+0000,-38.34,-45.67,-29.84,-50.60,-55.74,-55.39
2021/08/09 03:53:52+0000,-38.93,-47.81,-30.26,-50.35,-55.09,-56.24
2021/08/09 03:54:44+0000,-38.20,-45.75,-30.02,-49.75,-55.60,-55.27
2021/08/09 03:55:36+0000,-38.33,-43.30,-28.87,-51.78,-56.11,-54.71
2021/08/09 03:56:28+0000,-37.01,-47.06,-30.16,-50.53,-55.64,-55.83
2021/08/09 03:57:20+0000,-38.50,-45.27,-30.10,-51.86,-55.31,-55.57
2021/08/09 03:58:12+0000,-39.50,-46.12,-29.32,-52.08,-55.58,-55.59
2021/08/09 03:59:04+0000,-39.17,-47.65,-30.28,-50.48,-55.79,-54.89
2021/08/09 03:59:56+0000,-37.87,-46.61,-30.26,-51.00,-55.51,-55.25
2021/08/09 04:00:48+0000,-38.48,-46.18,-29.21,-50.08,-55.83,-54.85
2021/08/09 04:01:50+0000,-37.29,-46.74,-29.64,-50.46,-55.42,-55.35
2021/08/09 04:02:42+0000,-39.66,-45.37,-30.06,-51.05,-55.61,-55.44
2021/08/09 04:03:34+0000,-37.90,-47.94,-30.32,-51.17,-55.32,-56.36
2021/08/09 04:04:26+0000,-39.48,-46.99,-28.99,-50.73,-54.92,-55.70
2021/08/09 04:05:18+0000,-37.58,-44.19,-29.72,-51.70,-55.18,-55.35
2021/08/09 04:06:10+0000,-38.54,-44.77,-29.79,-49.56,-55.69,-54.87
2021/08/09 04:07:02+0000,-36.59,-47.32,-29.40,-50.66,-56.00,-54.85
2021/08/09 04:07:54+0000,-37.27,-45.81,-30.07,-50.47,-55.45,-54.71
2021/08/09 04:08:46+0000,-38.12,-44.25,-30.03,-49.56,-55.18,-55.72
2021/08/09 04:09:38+0000,-35.83,-45.81,-29.57,-51.30,-55.48,-56.10
2021/08/09 04:10:31+0000,-38.09,-46.49,-29.53,-49.45,-55.59,-55.51
2021/08/09 04:11:33+0000,-39.03,-46.71,-29.73,-51.26,-55.62,-55.94
2021/08/09 04:12:25+0000,-38.10,-46.39,-28.89,-51.16,-55.34,-55.28
2021/08/09 04:13:17+0000,-36.77,-47.97,-29.18,-51.90,-55.71,-55.12
2021/08/09 04:14:09+0000,-37.92,-44.66,-29.57,-49.56,-55.05,-55.03
2021/08/09 04:15:01+0000,-37.96,-46.41,-29.62,-49.89,-55.03,-55.22
2021/08/09 04:15:53+0000,-37.19,-46.15,-29.40,-50.44,-55.25,-55.98
2021/08/09 04:16:45+0000,-37.64,-45.53,-29.27,-50.40,-55.33,-55.50
2021/08/09 04:17:37+0000,-37.99,-47.37,-29.24,-48.38,-54.72,-55.29
2021/08/09 04:18:29+0000,-37.99,-46.86,-29.44,-50.02,-55.10,-55.97
2021/08/09 04:19:21+0000,-38.99,-48.11,-28.36,-50.38,-54.74,-55.65
2021/08/09 04:20:13+0000,-39.48,-44.92,-29.92,-49.09,-55.28,-55.27
2021/08/09 04:21:12+0000,-38.50,-45.15,-30.40,-49.94,-54.68,-55.32
2021/08/09 04:22:04+0000,-38.45,-47.25,-29.91,-51.65,-55.21,-55.30
2021/08/09 04:22:56+0000,-37.24,-46.45,-29.43,-50.83,-54.47,-54.87
2021/08/09 04:23:48+0000,-38.80,-45.21,-29.50,-50.70,-54.33,-55.36
2021/08/09 04:24:40+0000,-39.22,-45.19,-29.41,-50.08,-54.78,-55.12
2021/08/09 04:25:32+0000,-38.11,-45.30,-28.90,-49.63,-54.92,-54.88
2021/08/09 04:26:24+0000,-38.10,-46.28,-29.22,-51.08,-54.55,-54.54
2021/08/09 04:27:16+0000,-38.64,-46.31,-29.12,-49.60,-54.25,-55.17
2021/08/09 04:28:08+0000,-39.53,-46.23,-30.13,-50.93,-54.79,-54.98
2021/08/09 04:29:00+0000,-39.21,-46.23,-29.41,-50.89,-54.51,-54.83
2021/08/09 04:29:52+0000,-38.91,-47.87,-29.01,-50.89,-54.52,-55.12
2021/08/09 04:30:44+0000,-37.96,-44.46,-29.42,-50.27,-54.73,-55.88
2021/08/09 04:31:42+0000,-37.84,-45.53,-29.08,-50.59,-54.57,-55.10
2021/08/09 04:32:34+0000,-37.69,-46.64,-29.13,-50.75,-54.88,-55.20
2021/08/09 04:33:26+0000,-37.87,-45.84,-28.42,-50.69,-54.64,-55.24
2021/08/09 04:34:18+0000,-38.01,-45.61,-29.33,-50.92,-55.03,-55.20
2021/08/09 04:35:10+0000,-37.15,-45.52,-29.65,-51.31,-54.88,-54.72
2021/08/09 04:36:02+0000,-38.78,-45.87,-29.11,-50.93,-54.51,-54.59
2021/08/09 04:36:54+0000,-37.12,-46.73,-30.00,-52.32,-54.78,-54.68
2021/08/09 04:37:46+0000,-38.85,-45.37,-29.50,-52.45,-55.01,-55.03
2021/08/09 04:38:38+0000,-38.47,-45.12,-29.55,-52.15,-55.08,-55.56
2021/08/09 04:39:30+0000,-38.13,-46.58,-29.34,-53.00,-54.70,-54.72
2021/08/09 04:40:23+0000,-37.91,-49.64,-29.10,-52.18,-54.51,-55.28
2021/08/09 04:41:26+0000,-38.99,-48.18,-29.87,-52.63,-55.07,-54.71
2021/08/09 04:42:18+0000,-37.75,-46.68,-29.64,-53.35,-55.17,-54.73
2021/08/09 04:43:10+0000,-38.15,-47.23,-29.72,-52.64,-54.69,-55.65
2021/08/09 04:44:02+0000,-37.50,-45.79,-29.35,-51.75,-54.81,-55.01
2021/08/09 04:44:54+0000,-38.22,-46.84,-29.52,-51.94,-54.84,-54.30
2021/08/09 04:45:46+0000,-38.12,-46.21,-29.97,-52.45,-54.64,-54.45
2021/08/09 04:46:38+0000,-37.89,-46.01,-29.27,-52.55,-54.93,-54.46
2021/08/09 04:47:30+0000,-38.85,-46.87,-30.22,-52.02,-54.60,-55.00
2021/08/09 04:48:22+0000,-37.27,-47.01,-29.39,-52.79,-54.78,-55.02
2021/08/09 04:49:14+0000,-38.05,-46.07,-29.73,-52.62,-54.71,-54.92
2021/08/09 04:50:07+0000,-37.82,-47.25,-29.01,-52.71,-54.81,-55.05
2021/08/09 04:51:07+0000,-39.18,-48.84,-29.73,-52.06,-54.81,-55.15
2021/08/09 04:51:59+0000,-38.41,-45.23,-29.83,-52.99,-54.94,-54.84
2021/08/09 04:52:51+0000,-38.46,-46.96,-29.80,-52.58,-54.88,-55.86
2021/08/09 04:53:43+0000,-38.82,-45.98,-29.69,-52.71,-55.76,-55.43
2021/08/09 04:54:35+0000,-38.47,-46.20,-30.04,-52.87,-55.51,-55.60